When you browse on this site, cookies collect data to enhance your experience and personalize the content and advertising you see.
Visit our Privacy Policy to learn more. By continuing to use the site, you agree to this use of cookies and data.
  • In Hungary
  • List of Countries
  • For 7 days
  • Water Temperature
  • Satellite Maps
  • Weather Map
  • News
  • Weather Widgets
  • user-avatar
    Login

    Hourly Weather Samos

    Today, 21 January, Monday

    Time Temperature Precipitation Wind Pressure Humidity
    00:00 +7°C° 1.5 mm 5 mps 720 mmHg 92%
    01:00 +7°C° 1.5 mm 5 mps 720 mmHg 92%
    02:00 +6°C° 0 mm 5 mps 719 mmHg 92%
    03:00 +6°C° 0.7 mm 5 mps 719 mmHg 91%
    04:00 +6°C° 0.7 mm 5 mps 719 mmHg 90%
    05:00 +6°C° 0.7 mm 4 mps 719 mmHg 90%
    06:00 +6°C° 0.6 mm 4 mps 719 mmHg 90%
    07:00 +6°C° 0.6 mm 4 mps 719 mmHg 90%
    08:00 +7°C° 0.6 mm 3 mps 719 mmHg 90%
    09:00 +7°C° 0.4 mm 3 mps 719 mmHg 90%
    10:00 +7°C° 0.4 mm 3 mps 719 mmHg 90%
    11:00 +7°C° 0.4 mm 2 mps 720 mmHg 90%
    12:00 +8°C° 0.1 mm 2 mps 720 mmHg 87%
    13:00 +8°C° 0.1 mm 2 mps 720 mmHg 85%
    14:00 +10°C° 0.1 mm 1 mps 719 mmHg 83%
    15:00 +10°C° 0 mm 1 mps 720 mmHg 83%
    16:00 +9°C° 0 mm 1 mps 720 mmHg 83%
    17:00 +9°C° 0 mm 1 mps 720 mmHg 83%
    18:00 +9°C° 0 mm 1 mps 720 mmHg 83%
    19:00 +9°C° 0 mm 1 mps 720 mmHg 83%
    20:00 +9°C° 0 mm 1 mps 720 mmHg 83%
    21:00 +8°C° 0 mm 1 mps 721 mmHg 84%
    22:00 +8°C° 0 mm 1 mps 721 mmHg 85%
    23:00 +8°C° 0 mm 1 mps 721 mmHg 86%

    Tomorrow, 22 January, Tuesday

    Time Temperature Precipitation Wind Pressure Humidity
    00:00 +8°C° 0 mm 1 mps 721 mmHg 86%
    01:00 +8°C° 0 mm 1 mps 721 mmHg 87%
    02:00 +8°C° 0 mm 1 mps 721 mmHg 88%
    03:00 +8°C° 0 mm 1 mps 721 mmHg 88%
    04:00 +8°C° 0 mm 1 mps 721 mmHg 89%
    05:00 +7°C° 0 mm 2 mps 720 mmHg 90%
    06:00 +7°C° 0 mm 2 mps 720 mmHg 90%
    07:00 +7°C° 0 mm 2 mps 721 mmHg 91%
    08:00 +8°C° 0 mm 2 mps 721 mmHg 91%
    09:00 +8°C° 0 mm 2 mps 721 mmHg 89%
    10:00 +9°C° 0 mm 2 mps 721 mmHg 87%
    11:00 +10°C° 0 mm 3 mps 721 mmHg 86%
    12:00 +10°C° 0 mm 3 mps 721 mmHg 84%
    13:00 +10°C° 0 mm 3 mps 720 mmHg 82%
    14:00 +11°C° 0 mm 4 mps 720 mmHg 80%
    15:00 +10°C° 0 mm 4 mps 720 mmHg 81%
    16:00 +10°C° 0 mm 4 mps 719 mmHg 83%
    17:00 +10°C° 0 mm 4 mps 719 mmHg 84%
    18:00 +9°C° 0 mm 5 mps 719 mmHg 85%
    19:00 +9°C° 0 mm 5 mps 719 mmHg 86%
    20:00 +9°C° 0 mm 6 mps 719 mmHg 87%
    21:00 +9°C° 0 mm 6 mps 719 mmHg 86%
    22:00 +9°C° 0 mm 7 mps 719 mmHg 86%
    23:00 +9°C° 0 mm 8 mps 719 mmHg 86%

    Day after tomorrow, 23 January, Wednesday

    Time Temperature Precipitation Wind Pressure Humidity
    00:00 +9°C° 0 mm 8 mps 719 mmHg 85%
    01:00 +8°C° 0 mm 9 mps 718 mmHg 84%
    02:00 +8°C° 0 mm 9 mps 718 mmHg 83%
    03:00 +8°C° 0.3 mm 9 mps 718 mmHg 83%
    04:00 +8°C° 0.3 mm 9 mps 717 mmHg 83%
    05:00 +8°C° 0.3 mm 9 mps 717 mmHg 84%
    06:00 +8°C° 0.3 mm 9 mps 717 mmHg 84%
    07:00 +9°C° 0.3 mm 8 mps 717 mmHg 85%
    08:00 +9°C° 0.3 mm 8 mps 717 mmHg 85%
    09:00 +10°C° 0.5 mm 9 mps 717 mmHg 85%
    10:00 +10°C° 0.5 mm 9 mps 718 mmHg 84%
    11:00 +10°C° 0.5 mm 9 mps 718 mmHg 84%
    12:00 +10°C° 0.9 mm 9 mps 717 mmHg 85%
    13:00 +9°C° 0.9 mm 10 mps 716 mmHg 86%
    14:00 +9°C° 0.9 mm 10 mps 716 mmHg 87%
    15:00 +8°C° 0.9 mm 10 mps 715 mmHg 87%
    16:00 +8°C° 0.9 mm 10 mps 715 mmHg 87%
    17:00 +8°C° 0.9 mm 10 mps 715 mmHg 87%
    18:00 +8°C° 0.5 mm 9 mps 714 mmHg 86%
    19:00 +8°C° 0.5 mm 9 mps 714 mmHg 85%
    20:00 +8°C° 0.5 mm 9 mps 714 mmHg 84%
    21:00 +8°C° 0.1 mm 10 mps 714 mmHg 83%
    22:00 +9°C° 0.1 mm 10 mps 713 mmHg 82%
    23:00 +9°C° 0.1 mm 11 mps 713 mmHg 81%

    24 January, Thursday

    Time Temperature Precipitation Wind Pressure Humidity
    00:00 +9°C° 0.3 mm 11 mps 712 mmHg 81%
    01:00 +9°C° 0.3 mm 12 mps 712 mmHg 81%
    02:00 +9°C° 0.3 mm 12 mps 711 mmHg 81%
    03:00 +9°C° 0.9 mm 12 mps 710 mmHg 81%
    04:00 +9°C° 0.9 mm 12 mps 709 mmHg 82%
    05:00 +8°C° 0.9 mm 12 mps 708 mmHg 83%
    06:00 +8°C° 1.1 mm 12 mps 708 mmHg 82%
    07:00 +8°C° 1.1 mm 12 mps 708 mmHg 82%
    08:00 +8°C° 1.1 mm 13 mps 707 mmHg 82%
    09:00 +8°C° 2.8 mm 13 mps 707 mmHg 82%
    10:00 +9°C° 2.8 mm 14 mps 707 mmHg 82%
    11:00 +9°C° 2.8 mm 15 mps 707 mmHg 83%
    12:00 +9°C° 0.7 mm 14 mps 707 mmHg 81%
    13:00 +10°C° 0.7 mm 12 mps 707 mmHg 79%
    14:00 +11°C° 0.7 mm 11 mps 706 mmHg 77%
    15:00 +9°C° 1.2 mm 10 mps 707 mmHg 80%
    16:00 +9°C° 1.2 mm 10 mps 707 mmHg 83%
    17:00 +8°C° 1.2 mm 9 mps 708 mmHg 85%
    18:00 +10°C° 0.9 mm 9 mps 708 mmHg 82%
    19:00 +9°C° 0.9 mm 10 mps 709 mmHg 79%
    20:00 +9°C° 0.9 mm 10 mps 710 mmHg 76%
    21:00 +9°C° 0.4 mm 10 mps 711 mmHg 77%
    22:00 +10°C° 0.4 mm 9 mps 712 mmHg 78%
    23:00 +8°C° 0.4 mm 9 mps 712 mmHg 78%

    25 January, Friday

    Time Temperature Precipitation Wind Pressure Humidity
    00:00 +9°C° 0.8 mm 8 mps 713 mmHg 79%
    01:00 +9°C° 0.8 mm 8 mps 713 mmHg 80%
    02:00 +9°C° 0.8 mm 7 mps 713 mmHg 80%
    03:00 +9°C° 1 mm 7 mps 713 mmHg 81%
    04:00 +9°C° 1 mm 7 mps 713 mmHg 82%
    05:00 +9°C° 1 mm 8 mps 713 mmHg 82%
    06:00 +9°C° 0.9 mm 8 mps 713 mmHg 80%
    07:00 +10°C° 0.9 mm 9 mps 713 mmHg 78%
    08:00 +9°C° 0.9 mm 10 mps 713 mmHg 76%
    09:00 +9°C° 0.7 mm 11 mps 714 mmHg 75%
    10:00 +9°C° 0.7 mm 12 mps 714 mmHg 73%
    11:00 +9°C° 0.7 mm 13 mps 714 mmHg 72%
    12:00 +9°C° 1.3 mm 13 mps 713 mmHg 72%
    13:00 +9°C° 1.3 mm 13 mps 713 mmHg 73%
    14:00 +9°C° 1.3 mm 13 mps 713 mmHg 73%
    15:00 +9°C° 1.5 mm 13 mps 712 mmHg 74%
    16:00 +9°C° 1.5 mm 13 mps 712 mmHg 75%
    17:00 +9°C° 1.5 mm 13 mps 712 mmHg 76%
    18:00 +9°C° 1.5 mm 13 mps 712 mmHg 78%
    19:00 +8°C° 1.5 mm 13 mps 712 mmHg 80%
    20:00 +8°C° 1.5 mm 12 mps 712 mmHg 82%
    21:00 +8°C° 2.3 mm 11 mps 712 mmHg 83%
    22:00 +8°C° 2.3 mm 10 mps 712 mmHg 84%
    23:00 +9°C° 2.3 mm 8 mps 712 mmHg 85%

    26 January, Saturday

    Time Temperature Precipitation Wind Pressure Humidity
    00:00 +9°C° 0.9 mm 8 mps 711 mmHg 82%
    01:00 +9°C° 0.9 mm 8 mps 711 mmHg 78%
    02:00 +9°C° 0.9 mm 7 mps 711 mmHg 75%
    03:00 +9°C° 0.6 mm 8 mps 711 mmHg 75%
    04:00 +9°C° 0.6 mm 8 mps 710 mmHg 76%
    05:00 +9°C° 0.6 mm 8 mps 710 mmHg 76%
    06:00 +8°C° 1.3 mm 9 mps 710 mmHg 78%
    07:00 +8°C° 1.3 mm 9 mps 710 mmHg 80%
    08:00 +8°C° 1.3 mm 10 mps 710 mmHg 81%
    09:00 +8°C° 1.5 mm 10 mps 710 mmHg 81%
    10:00 +8°C° 1.5 mm 10 mps 710 mmHg 80%
    11:00 +8°C° 1.5 mm 11 mps 710 mmHg 80%
    12:00 +8°C° 1 mm 11 mps 710 mmHg 79%
    13:00 +8°C° 1 mm 12 mps 709 mmHg 78%
    14:00 +8°C° 1 mm 13 mps 709 mmHg 77%
    15:00 +8°C° 0.8 mm 12 mps 710 mmHg 80%
    16:00 +7°C° 0.8 mm 10 mps 710 mmHg 84%
    17:00 +6°C° 0.8 mm 8 mps 710 mmHg 87%
    18:00 +6°C° 0.1 mm 7 mps 711 mmHg 84%
    19:00 +7°C° 0.1 mm 6 mps 711 mmHg 81%
    20:00 +7°C° 0.1 mm 4 mps 712 mmHg 78%
    21:00 +7°C° 0.1 mm 4 mps 712 mmHg 77%
    22:00 +9°C° 0.1 mm 3 mps 712 mmHg 76%
    23:00 +9°C° 0.1 mm 2 mps 713 mmHg 75%
    Show more